Overview Statistics Trail Chart Weather Telemetry Raw packets
 

This is the latest recevied weather packets stored in our database for station/object SV9TNF-52. If no packets are shown the sender has not sent any weather packets the latest 10 day(s).

<< 109 110 111 112 113 114 115 >>
Time Temp. Humidity Pressure Rain* Wind** Luminosity Snow
1787843196 31.11° C 62% 1020 hPa 0 mm 1.34 m/s, 288° - -
1787842896 30.56° C 62% 1020 hPa 0 mm 8.49 m/s, 245° - -
1787842595 31.11° C 63% 1020 hPa 0 mm 5.81 m/s, 33° - -
1787842296 31.11° C 63% 1020 hPa 0 mm 5.81 m/s, 75° - -
1787841995 31.11° C 63% 1020 hPa 0 mm 4.92 m/s, 181° - -
1787841695 31.11° C 63% 1020 hPa 0 mm 4.02 m/s, 258° - -
1787841395 31.11° C 62% 1020 hPa 0 mm 4.92 m/s, 261° - -
1787841095 31.67° C 63% 1020 hPa 0 mm 6.26 m/s, 294° - -
1787840795 31.67° C 61% 1020 hPa 0 mm 6.71 m/s, 309° - -
1787840495 31.67° C 61% 1020 hPa 0 mm 3.58 m/s, 259° - -
1787840194 31.67° C 62% 1020 hPa 0 mm 1.79 m/s, 309° - -
1787839895 31.67° C 61% 1020 hPa 0 mm 4.92 m/s, 278° - -
1787839594 31.67° C 62% 1020 hPa 0 mm 4.92 m/s, 237° - -
1787839294 31.67° C 62% 1020 hPa 0 mm 3.13 m/s, 290° - -
1787838995 31.67° C 62% 1020 hPa 0 mm 6.26 m/s, 276° - -
1787838694 31.67° C 61% 1020 hPa 0 mm 5.81 m/s, 188° - -
1787838394 32.22° C 60% 1020 hPa 0 mm 4.92 m/s, 300° - -
1787838094 32.22° C 60% 1020 hPa 0 mm 3.58 m/s, 272° - -
1787837794 32.78° C 59% 1020 hPa 0 mm 4.92 m/s, 343° - -
1787837494 33.33° C 59% 1020 hPa 0 mm 4.47 m/s, 251° - -
1787837194 32.78° C 59% 1020 hPa 0 mm 4.92 m/s, 294° - -
1787836894 32.78° C 59% 1020 hPa 0 mm 4.92 m/s, 257° - -
1787836594 32.78° C 59% 1020 hPa 0 mm 6.26 m/s, 290° - -
1787836293 32.78° C 58% 1020 hPa 0 mm 4.92 m/s, 329° - -
1787835993 33.33° C 58% 1020 hPa 0 mm 4.92 m/s, 278° - -

* Rain latest hour (hover to see other rain measurements)
** Current wind speed in m/s (hover to see current wind gust speed)